Flag for Germany Weather past 2 weeks in Wismar, Mecklenburg-Western Pomerania, Germany

Now
41 °F

Overcast.


Feels Like: 34 °F
Forecast: 39 / 46 °F
Wind: 10 mph from West

Location: Schwerin

Current Time: Dec 20, 2014 at 5:39:28 AM

Latest Report: Dec 20, 2014 at 5:00 AM


Visibility: 16 mi

Pressure: 29.78 "Hg

Humidity: 87%

Dew point: 37 °F

Location of WismarLocation

Historic Weather in Wismar — Graph

°F

Wismar temperature yesterday

Maximum temperature yesterday: 52 °F (at 12:00 AM)
Minimum temperature yesterday: 41 °F (at 11:00 PM)
Average temperature yesterday: 48 °F

Past Weeks' High & Low Weather Summary

 TemperatureHumidityPressure
High52 °F (Dec 18, 11:00 PM)100% (Dec 6, 7:00 PM)30.32 "Hg (Dec 6, 7:00 PM)
Low31 °F (Dec 7, 12:00 AM)76% (Dec 10, 7:00 AM)29.21 "Hg (Dec 12, 3:00 PM)
Average39 °F91%29.84 "Hg
* Reported Dec 5 3:00 AM — Dec 20 3:00 AM, Wismar, Weather by CustomWeather, © 2014

Note: Actual official high and low records may vary slightly from our data, if they occured in-between our weather recording intervals... More about our weather records

Advertising

Wismar weather history for previous 24 hours

 ConditionsComfort  
Time TempWeatherWind HumidityBarometerVisibility
3:00 AM
Dec 20
42 °FOvercast.13 mph82%29.78 "Hg17 mi
2:00 AM40 °FOvercast.9 mph90%29.78 "Hg18 mi
1:00 AM38 °FRain. Overcast.9 mph90%29.79 "Hg1 mi
12:00 AM39 °FLight rain. Overcast.13 mph88%29.79 "Hg12 mi
11:00 PM
Dec 19
41 °FPassing clouds.8 mph85%29.77 "Hg16 mi
9:00 PM42 °FPassing clouds.9 mph78%29.75 "Hg17 mi
8:00 PM42 °FOvercast.8 mph82%29.74 "Hg16 mi
7:00 PM43 °FPassing clouds.8 mph79%29.72 "Hg17 mi
6:00 PM44 °FPassing clouds.9 mph78%29.70 "Hg17 mi
5:00 PM45 °FOvercast.8 mph77%29.69 "Hg18 mi
3:00 PM47 °FOvercast.8 mph84%29.63 "Hg28 mi
2:00 PM48 °FOvercast.8 mph87%29.61 "Hg37 mi
1:00 PM48 °FLight rain. Partly sunny.8 mph90%29.59 "Hg34 mi
12:00 PM49 °FLight rain. Overcast.7 mph94%29.60 "Hg6 mi
11:00 AM52 °FLight rain. Overcast.9 mph94%29.56 "Hg4 mi
9:00 AM51 °FLight rain. Overcast.9 mph96%29.57 "Hg5 mi
8:00 AM51 °FLight rain. Low clouds.9 mph96%29.58 "Hg7 mi
7:00 AM52 °FLight rain. Low clouds.10 mph96%29.59 "Hg6 mi
6:00 AM52 °FLight freezing rain. Low clouds.9 mph95%29.60 "Hg9 mi
5:00 AM52 °FDrizzle. Low clouds.9 mph96%29.62 "Hg3 mi
Weather by CustomWeather, © 2014

See weather overviewHow to use our weather pages